Time,TemperatureF,DewpointF,PressureIn,WindDirection,WindDirectionDegrees,WindSpeedMPH,WindSpeedGustMPH,Humidity,HourlyPrecipIn,Conditions,Clouds,dailyrainin,SoftwareType,DateUTC
2013-02-17 00:00:00,22.1,15.7,29.90,ESE,103,0.0,2.0,76,0.00,,OVC049,0.00,VWS V14.01,2013-02-17 05:00:00,
2013-02-17 00:01:00,22.1,15.7,29.90,SSE,152,0.0,2.0,76,0.00,,OVC049,0.00,VWS V14.01,2013-02-17 05:01:00,
2013-02-17 00:06:00,22.0,15.3,29.90,SE,127,0.0,1.0,75,0.00,,OVC049,0.00,VWS V14.01,2013-02-17 05:06:00,
2013-02-17 00:11:00,22.0,15.3,29.90,ESE,120,0.0,1.0,75,0.00,,OVC049,0.00,VWS V14.01,2013-02-17 05:11:00,
2013-02-17 00:16:00,22.1,15.7,29.90,ENE,68,0.0,2.0,76,0.00,,OVC049,0.00,VWS V14.01,2013-02-17 05:16:00,
2013-02-17 00:21:00,22.0,15.3,29.90,SE,141,0.0,2.0,75,0.00,,OVC049,0.00,VWS V14.01,2013-02-17 05:21:00,
2013-02-17 00:26:00,22.0,15.3,29.90,SSW,208,0.0,2.0,75,0.00,,OVC049,0.00,VWS V14.01,2013-02-17 05:26:00,
2013-02-17 00:30:00,21.5,13.6,29.89,East,93,1.0,4.0,71,0.00,,OVC,0.00,VWS V14.01,2013-02-17 05:30:00,
2013-02-17 00:32:00,21.9,14.6,29.90,East,100,0.0,3.0,73,0.00,,OVC049,0.00,VWS V14.01,2013-02-17 05:32:00,
2013-02-17 00:37:00,21.9,14.9,29.90,ENE,68,0.0,2.0,74,0.00,,OVC060,0.00,VWS V14.01,2013-02-17 05:37:00,
2013-02-17 00:42:00,22.0,14.4,29.90,SSE,153,2.0,2.0,72,0.00,,OVC060,0.00,VWS V14.01,2013-02-17 05:42:00,
2013-02-17 00:47:00,21.9,14.0,29.89,East,100,0.0,3.0,71,0.00,,OVC060,0.00,VWS V14.01,2013-02-17 05:47:00,
2013-02-17 00:52:00,21.9,13.6,29.90,East,100,1.0,3.0,70,0.00,,OVC060,0.00,VWS V14.01,2013-02-17 05:52:00,
2013-02-17 00:57:00,21.9,13.6,29.89,ENE,58,3.0,3.0,70,0.00,,OVC060,0.00,VWS V14.01,2013-02-17 05:57:00,
2013-02-17 01:00:00,20.6,13.6,29.88,SE,129,2.0,5.0,74,0.00,,OVC,0.00,VWS V14.01,2013-02-17 06:00:00,
2013-02-17 01:02:00,21.8,13.2,29.89,ESE,115,0.0,3.0,69,0.00,,OVC060,0.00,VWS V14.01,2013-02-17 06:02:00,
2013-02-17 01:07:00,21.8,13.2,29.89,NNE,12,1.0,3.0,69,0.00,,OVC060,0.00,VWS V14.01,2013-02-17 06:07:00,
2013-02-17 01:13:00,21.7,13.1,29.89,East,94,1.0,3.0,69,0.00,,OVC060,0.00,VWS V14.01,2013-02-17 06:13:00,
2013-02-17 01:18:00,21.6,13.7,29.89,ENE,62,1.0,4.0,71,0.00,,OVC060,0.00,VWS V14.01,2013-02-17 06:18:00,
2013-02-17 01:23:00,21.5,13.6,29.89,ESE,113,3.0,4.0,71,0.00,,OVC060,0.00,VWS V14.01,2013-02-17 06:23:00,
2013-02-17 01:28:00,21.4,12.8,29.88,SE,139,1.0,4.0,69,0.00,,OVC060,0.00,VWS V14.01,2013-02-17 06:28:00,
2013-02-17 01:30:00,20.7,12.1,29.88,ESE,103,0.0,4.0,69,0.00,,OVC,0.00,VWS V14.01,2013-02-17 06:30:00,
2013-02-17 01:33:00,21.5,13.6,29.89,SE,131,1.0,2.0,71,0.00,,,0.00,VWS V14.01,2013-02-17 06:33:00,
2013-02-17 01:38:00,21.3,13.4,29.88,East,86,2.0,4.0,71,0.00,,,0.00,VWS V14.01,2013-02-17 06:38:00,
2013-02-17 01:43:00,21.0,13.7,29.88,NNE,18,1.0,4.0,73,0.00,,,0.00,VWS V14.01,2013-02-17 06:43:00,
2013-02-17 01:48:00,20.8,13.8,29.89,SSE,163,0.0,5.0,74,0.00,,,0.00,VWS V14.01,2013-02-17 06:48:00,
2013-02-17 01:54:00,20.7,13.7,29.89,South,174,1.0,5.0,74,0.00,,,0.00,VWS V14.01,2013-02-17 06:54:00,
2013-02-17 01:59:00,20.6,13.6,29.88,SSE,152,0.0,5.0,74,0.00,,,0.00,VWS V14.01,2013-02-17 06:59:00,
2013-02-17 02:00:00,20.0,14.3,29.88,NNW,345,0.0,3.0,78,0.00,,OVC,0.00,VWS V14.01,2013-02-17 07:00:00,
2013-02-17 02:04:00,20.5,13.5,29.88,SE,134,1.0,3.0,74,0.00,,,0.00,VWS V14.01,2013-02-17 07:04:00,
2013-02-17 02:09:00,20.5,13.2,29.88,SSE,162,0.0,4.0,73,0.00,,,0.00,VWS V14.01,2013-02-17 07:09:00,
2013-02-17 02:14:00,20.5,12.9,29.88,ESE,113,0.0,4.0,72,0.00,,,0.00,VWS V14.01,2013-02-17 07:14:00,
2013-02-17 02:19:00,20.5,13.2,29.88,SE,124,0.0,4.0,73,0.00,,,0.00,VWS V14.01,2013-02-17 07:19:00,
2013-02-17 02:24:00,20.6,13.0,29.88,East,86,0.0,4.0,72,0.00,,,0.00,VWS V14.01,2013-02-17 07:24:00,
2013-02-17 02:29:00,20.6,12.4,29.88,SSE,153,0.0,4.0,70,0.00,,,0.00,VWS V14.01,2013-02-17 07:29:00,
2013-02-17 02:30:00,19.3,14.7,29.87,NNW,338,0.0,1.0,82,0.00,,OVC,0.00,VWS V14.01,2013-02-17 07:30:00,
2013-02-17 02:35:00,20.7,11.8,29.88,NE,49,0.0,2.0,68,0.00,,OVC050,0.00,VWS V14.01,2013-02-17 07:35:00,
2013-02-17 02:40:00,20.7,12.1,29.88,North,6,0.0,3.0,69,0.00,,OVC050,0.00,VWS V14.01,2013-02-17 07:40:00,
2013-02-17 02:45:00,20.6,12.4,29.88,NE,53,0.0,3.0,70,0.00,,OVC050,0.00,VWS V14.01,2013-02-17 07:45:00,
2013-02-17 02:50:00,20.4,12.8,29.87,SE,129,0.0,3.0,72,0.00,,OVC050,0.00,VWS V14.01,2013-02-17 07:50:00,
2013-02-17 02:55:00,20.3,13.4,29.88,North,359,0.0,3.0,74,0.00,,OVC050,0.00,VWS V14.01,2013-02-17 07:55:00,
2013-02-17 03:00:00,20.1,14.1,29.88,North,4,0.0,3.0,77,0.00,,OVC050,0.00,VWS V14.01,2013-02-17 08:00:00,
2013-02-17 03:05:00,19.8,14.1,29.88,NNW,345,0.0,1.0,78,0.00,,OVC050,0.00,VWS V14.01,2013-02-17 08:05:00,
2013-02-17 03:10:00,19.7,14.3,29.88,NNW,345,0.0,1.0,79,0.00,,OVC050,0.00,VWS V14.01,2013-02-17 08:10:00,
2013-02-17 03:16:00,19.6,14.4,29.88,NNW,345,0.0,1.0,80,0.00,,OVC050,0.00,VWS V14.01,2013-02-17 08:16:00,
2013-02-17 03:21:00,19.5,14.6,29.87,NNW,345,0.0,1.0,81,0.00,,OVC050,0.00,VWS V14.01,2013-02-17 08:21:00,
2013-02-17 03:26:00,19.4,14.5,29.87,NNW,343,0.0,1.0,81,0.00,,OVC050,0.00,VWS V14.01,2013-02-17 08:26:00,
2013-02-17 03:30:00,19.3,15.3,29.88,NNW,335,0.0,2.0,84,0.00,,OVC,0.00,VWS V14.01,2013-02-17 08:30:00,
2013-02-17 03:31:00,19.3,14.7,29.87,NNW,337,0.0,1.0,82,0.00,,OVC050,0.00,VWS V14.01,2013-02-17 08:31:00,
2013-02-17 03:36:00,19.2,14.6,29.87,NNW,337,0.0,0.0,82,0.00,,OVC045,0.00,VWS V14.01,2013-02-17 08:36:00,
2013-02-17 03:41:00,19.2,14.9,29.87,NNW,337,0.0,0.0,83,0.00,,OVC045,0.00,VWS V14.01,2013-02-17 08:41:00,
2013-02-17 03:46:00,19.2,14.9,29.88,NNW,337,0.0,0.0,83,0.00,,OVC045,0.00,VWS V14.01,2013-02-17 08:46:00,
2013-02-17 03:52:00,19.2,14.9,29.88,North,354,0.0,0.0,83,0.00,,OVC045,0.00,VWS V14.01,2013-02-17 08:52:00,
2013-02-17 03:57:00,19.2,14.9,29.88,North,354,0.0,0.0,83,0.00,,OVC045,0.00,VWS V14.01,2013-02-17 08:57:00,
2013-02-17 04:00:00,18.8,15.1,29.89,NE,38,0.0,3.0,85,0.00,,OVC,0.00,VWS V14.01,2013-02-17 09:00:00,
2013-02-17 04:02:00,19.1,15.1,29.88,NNE,13,0.0,2.0,84,0.00,,OVC045,0.00,VWS V14.01,2013-02-17 09:02:00,
2013-02-17 04:07:00,19.1,14.8,29.88,NNE,16,0.0,2.0,83,0.00,,OVC045,0.00,VWS V14.01,2013-02-17 09:07:00,
2013-02-17 04:12:00,19.1,14.5,29.88,East,83,0.0,2.0,82,0.00,,OVC045,0.00,VWS V14.01,2013-02-17 09:12:00,
2013-02-17 04:17:00,19.2,14.6,29.88,NE,49,0.0,2.0,82,0.00,,OVC045,0.00,VWS V14.01,2013-02-17 09:17:00,
2013-02-17 04:22:00,19.2,14.3,29.88,NE,49,0.0,2.0,81,0.00,,OVC045,0.00,VWS V14.01,2013-02-17 09:22:00,
2013-02-17 04:27:00,19.3,14.7,29.88,NNE,15,2.0,2.0,82,0.00,,OVC045,0.00,VWS V14.01,2013-02-17 09:27:00,
2013-02-17 04:30:00,18.3,15.1,29.89,NNE,18,0.0,3.0,87,0.00,,OVC,0.00,VWS V14.01,2013-02-17 09:30:00,
2013-02-17 04:32:00,19.3,15.3,29.88,NNW,335,0.0,2.0,84,0.00,,OVC048,0.00,VWS V14.01,2013-02-17 09:32:00,
2013-02-17 04:38:00,19.3,15.5,29.88,NNW,337,0.0,1.0,85,0.00,,OVC048,0.00,VWS V14.01,2013-02-17 09:38:00,
2013-02-17 04:43:00,19.2,15.2,29.89,ENE,71,1.0,3.0,84,0.00,,OVC048,0.00,VWS V14.01,2013-02-17 09:43:00,
2013-02-17 04:48:00,19.0,15.0,29.89,East,99,1.0,3.0,84,0.00,,OVC048,0.00,VWS V14.01,2013-02-17 09:48:00,
2013-02-17 04:53:00,18.9,14.9,29.89,NE,41,0.0,3.0,84,0.00,,OVC048,0.00,VWS V14.01,2013-02-17 09:53:00,
2013-02-17 04:58:00,18.8,14.8,29.89,NNE,13,0.0,3.0,84,0.00,,OVC048,0.00,VWS V14.01,2013-02-17 09:58:00,
2013-02-17 05:00:00,18.3,15.4,29.90,North,360,1.0,8.0,88,0.00,,OVC,0.00,VWS V14.01,2013-02-17 10:00:00,
2013-02-17 05:03:00,18.8,15.1,29.89,NNE,32,0.0,2.0,85,0.00,,OVC048,0.00,VWS V14.01,2013-02-17 10:03:00,
2013-02-17 05:08:00,18.7,14.9,29.89,NNE,32,1.0,2.0,85,0.00,,OVC048,0.00,VWS V14.01,2013-02-17 10:08:00,
2013-02-17 05:13:00,18.6,14.9,29.89,NNW,345,1.0,2.0,85,0.00,,OVC048,0.00,VWS V14.01,2013-02-17 10:13:00,
2013-02-17 05:18:00,18.6,15.1,29.89,WNW,295,2.0,3.0,86,0.00,,OVC048,0.00,VWS V14.01,2013-02-17 10:18:00,
2013-02-17 05:23:00,18.5,15.0,29.89,NNE,13,0.0,3.0,86,0.00,,OVC048,0.00,VWS V14.01,2013-02-17 10:23:00,
2013-02-17 05:29:00,18.4,15.2,29.89,NNE,19,0.0,3.0,87,0.00,,OVC048,0.00,VWS V14.01,2013-02-17 10:29:00,
2013-02-17 05:30:00,17.1,13.9,29.90,NE,38,2.0,5.0,87,0.00,,OVC,0.00,VWS V14.01,2013-02-17 10:30:00,
2013-02-17 05:34:00,18.2,15.0,29.90,NNW,335,1.0,1.0,87,0.00,,,0.00,VWS V14.01,2013-02-17 10:34:00,
2013-02-17 05:39:00,18.2,15.0,29.89,NNW,338,0.0,1.0,87,0.00,,,0.00,VWS V14.01,2013-02-17 10:39:00,
2013-02-17 05:44:00,18.1,14.9,29.90,NNW,336,0.0,1.0,87,0.00,,,0.00,VWS V14.01,2013-02-17 10:44:00,
2013-02-17 05:49:00,18.2,15.2,29.89,NW,326,0.0,3.0,88,0.00,,,0.00,VWS V14.01,2013-02-17 10:49:00,
2013-02-17 05:54:00,18.2,15.5,29.89,ENE,63,0.0,3.0,89,0.00,,,0.00,VWS V14.01,2013-02-17 10:54:00,
2013-02-17 05:59:00,18.3,15.6,29.90,NNW,335,2.0,8.0,89,0.00,,,0.00,VWS V14.01,2013-02-17 10:59:00,
2013-02-17 06:00:00,17.5,14.6,29.90,NNE,20,2.0,5.0,88,0.00,,OVC,0.00,VWS V14.01,2013-02-17 11:00:00,
2013-02-17 06:04:00,18.3,15.4,29.89,NE,53,1.0,5.0,88,0.00,,,0.00,VWS V14.01,2013-02-17 11:04:00,
2013-02-17 06:10:00,18.0,14.8,29.89,North,10,1.0,5.0,87,0.00,,,0.00,VWS V14.01,2013-02-17 11:10:00,
2013-02-17 06:15:00,17.7,14.5,29.90,NE,34,0.0,5.0,87,0.00,,,0.00,VWS V14.01,2013-02-17 11:15:00,
2013-02-17 06:20:00,17.4,13.9,29.90,NNE,20,0.0,5.0,86,0.00,,,0.00,VWS V14.01,2013-02-17 11:20:00,
2013-02-17 06:25:00,17.1,13.6,29.90,NNW,345,0.0,5.0,86,0.00,,,0.00,VWS V14.01,2013-02-17 11:25:00,
2013-02-17 06:30:00,17.0,13.8,29.90,NNW,345,0.0,5.0,87,0.00,,,0.00,VWS V14.01,2013-02-17 11:30:00,
2013-02-17 06:35:00,17.1,13.9,29.90,NNE,18,0.0,2.0,87,0.00,,,0.00,VWS V14.01,2013-02-17 11:35:00,
2013-02-17 06:40:00,17.1,14.2,29.90,NNW,340,0.0,2.0,88,0.00,,,0.00,VWS V14.01,2013-02-17 11:40:00,
2013-02-17 06:46:00,17.2,14.3,29.90,North,360,1.0,3.0,88,0.00,,,0.00,VWS V14.01,2013-02-17 11:46:00,
2013-02-17 06:51:00,17.3,14.4,29.90,North,9,0.0,5.0,88,0.00,,,0.00,VWS V14.01,2013-02-17 11:51:00,
2013-02-17 06:56:00,17.4,14.5,29.90,NNE,13,0.0,5.0,88,0.00,,,0.00,VWS V14.01,2013-02-17 11:56:00,
2013-02-17 07:00:00,17.0,14.3,29.91,NE,43,2.0,4.0,89,0.00,,OVC,0.00,VWS V14.01,2013-02-17 12:00:00,
2013-02-17 07:01:00,17.5,14.6,29.91,NE,49,4.0,5.0,88,0.00,,,0.00,VWS V14.01,2013-02-17 12:01:00,
2013-02-17 07:06:00,17.4,14.2,29.91,NNE,27,3.0,4.0,87,0.00,,,0.00,VWS V14.01,2013-02-17 12:06:00,
2013-02-17 07:11:00,17.1,13.6,29.91,North,10,1.0,5.0,86,0.00,,,0.00,VWS V14.01,2013-02-17 12:11:00,
2013-02-17 07:16:00,16.9,13.7,29.91,NNW,331,1.0,5.0,87,0.00,,,0.00,VWS V14.01,2013-02-17 12:16:00,
2013-02-17 07:22:00,16.7,13.5,29.91,NNE,18,2.0,5.0,87,0.00,,,0.00,VWS V14.01,2013-02-17 12:22:00,
2013-02-17 07:27:00,16.5,13.3,29.91,NNW,342,0.0,5.0,87,0.00,,,0.00,VWS V14.01,2013-02-17 12:27:00,
2013-02-17 07:30:00,17.5,15.1,29.92,NNW,335,1.0,7.0,90,0.00,,OVC,0.00,VWS V14.01,2013-02-17 12:30:00,
2013-02-17 07:32:00,16.5,13.6,29.91,North,352,1.0,5.0,88,0.00,,BKN070,0.00,VWS V14.01,2013-02-17 12:32:00,
2013-02-17 07:38:00,16.6,13.7,29.91,NNW,337,1.0,3.0,88,0.00,,BKN070,0.00,VWS V14.01,2013-02-17 12:38:00,
2013-02-17 07:43:00,16.6,13.9,29.91,NE,46,0.0,3.0,89,0.00,,BKN070,0.00,VWS V14.01,2013-02-17 12:43:00,
2013-02-17 07:48:00,16.7,14.0,29.91,NW,325,0.0,4.0,89,0.00,,BKN070,0.00,VWS V14.01,2013-02-17 12:48:00,
2013-02-17 07:53:00,16.8,14.1,29.91,NW,326,1.0,4.0,89,0.00,,BKN070,0.00,VWS V14.01,2013-02-17 12:53:00,
2013-02-17 07:58:00,17.0,14.3,29.91,NNW,337,1.0,4.0,89,0.00,,BKN070,0.00,VWS V14.01,2013-02-17 12:58:00,
2013-02-17 08:00:00,17.0,13.3,29.92,NW,323,2.0,9.0,85,0.00,,OVC,0.00,VWS V14.01,2013-02-17 13:00:00,
2013-02-17 08:03:00,17.0,14.3,29.91,WNW,301,1.0,2.0,89,0.00,,BKN070,0.00,VWS V14.01,2013-02-17 13:03:00,
2013-02-17 08:08:00,17.3,14.9,29.91,NW,319,2.0,3.0,90,0.00,,BKN070,0.00,VWS V14.01,2013-02-17 13:08:00,
2013-02-17 08:13:00,17.4,15.0,29.91,NNE,27,1.0,5.0,90,0.00,,BKN070,0.00,VWS V14.01,2013-02-17 13:13:00,
2013-02-17 08:19:00,17.4,15.0,29.91,North,350,1.0,5.0,90,0.00,,BKN070,0.00,VWS V14.01,2013-02-17 13:19:00,
2013-02-17 08:24:00,17.4,15.0,29.91,NE,49,2.0,7.0,90,0.00,,BKN070,0.00,VWS V14.01,2013-02-17 13:24:00,
2013-02-17 08:29:00,17.4,15.0,29.92,East,86,1.0,7.0,90,0.00,,BKN070,0.00,VWS V14.01,2013-02-17 13:29:00,
2013-02-17 08:30:00,17.3,13.0,29.92,North,3,2.0,11.0,83,0.00,,OVC,0.00,VWS V14.01,2013-02-17 13:30:00,
2013-02-17 08:34:00,17.5,15.1,29.91,ENE,58,5.0,6.0,90,0.00,,,0.00,VWS V14.01,2013-02-17 13:34:00,
2013-02-17 08:39:00,17.5,15.1,29.92,NW,325,3.0,6.0,90,0.00,,,0.00,VWS V14.01,2013-02-17 13:39:00,
2013-02-17 08:44:00,17.3,14.6,29.92,West,277,2.0,9.0,89,0.00,,,0.00,VWS V14.01,2013-02-17 13:44:00,
2013-02-17 08:49:00,17.1,13.9,29.92,NNE,20,2.0,9.0,87,0.00,,,0.00,VWS V14.01,2013-02-17 13:49:00,
2013-02-17 08:54:00,17.0,13.5,29.92,NNW,328,3.0,9.0,86,0.00,,,0.00,VWS V14.01,2013-02-17 13:54:00,
2013-02-17 09:00:00,16.9,13.4,29.92,NNW,328,3.0,9.0,86,0.00,,,0.00,VWS V14.01,2013-02-17 14:00:00,
2013-02-17 09:05:00,17.0,13.3,29.92,NNW,336,3.0,6.0,85,0.00,,,0.00,VWS V14.01,2013-02-17 14:05:00,
2013-02-17 09:10:00,17.1,12.8,29.92,West,259,4.0,11.0,83,0.00,,,0.00,VWS V14.01,2013-02-17 14:10:00,
2013-02-17 09:15:00,17.0,12.5,29.92,WNW,296,5.0,11.0,82,0.00,,,0.00,VWS V14.01,2013-02-17 14:15:00,
2013-02-17 09:20:00,17.1,12.8,29.92,NW,321,3.0,11.0,83,0.00,,,0.00,VWS V14.01,2013-02-17 14:20:00,
2013-02-17 09:25:00,17.1,12.6,29.92,NW,314,4.0,11.0,82,0.00,,,0.00,VWS V14.01,2013-02-17 14:25:00,
2013-02-17 09:30:00,17.1,12.6,29.92,NW,309,3.0,11.0,82,0.00,,,0.00,VWS V14.01,2013-02-17 14:30:00,
2013-02-17 09:35:00,17.3,13.0,29.92,WNW,291,6.0,6.0,83,0.00,,,0.00,VWS V14.01,2013-02-17 14:35:00,
2013-02-17 09:41:00,17.3,13.3,29.92,NNE,28,4.0,6.0,84,0.00,,,0.00,VWS V14.01,2013-02-17 14:41:00,
2013-02-17 09:46:00,17.1,12.8,29.92,NW,307,4.0,7.0,83,0.00,,,0.00,VWS V14.01,2013-02-17 14:46:00,
2013-02-17 09:51:00,17.1,12.8,29.92,NNW,328,3.0,7.0,83,0.00,,,0.00,VWS V14.01,2013-02-17 14:51:00,
2013-02-17 09:56:00,17.2,13.2,29.92,North,355,3.0,7.0,84,0.00,,,0.00,VWS V14.01,2013-02-17 14:56:00,
2013-02-17 10:00:00,16.7,12.2,29.93,North,349,4.0,8.0,82,0.00,,OVC,0.00,VWS V14.01,2013-02-17 15:00:00,
2013-02-17 10:01:00,17.4,13.7,29.92,NNW,345,1.0,7.0,85,0.00,,,0.00,VWS V14.01,2013-02-17 15:01:00,
2013-02-17 10:06:00,17.4,13.7,29.92,NNW,337,1.0,5.0,85,0.00,,,0.00,VWS V14.01,2013-02-17 15:06:00,
2013-02-17 10:11:00,17.3,13.3,29.93,NNW,335,3.0,6.0,84,0.00,,,0.00,VWS V14.01,2013-02-17 15:11:00,
2013-02-17 10:16:00,17.0,12.7,29.93,NW,325,5.0,6.0,83,0.00,,,0.00,VWS V14.01,2013-02-17 15:16:00,
2013-02-17 10:21:00,17.0,12.7,29.93,NW,306,2.0,6.0,83,0.00,,,0.00,VWS V14.01,2013-02-17 15:21:00,
2013-02-17 10:26:00,17.1,12.8,29.93,NW,311,2.0,6.0,83,0.00,,,0.00,VWS V14.01,2013-02-17 15:26:00,
2013-02-17 10:30:00,16.7,12.4,29.93,NW,320,1.0,10.0,83,0.00,,OVC,0.00,VWS V14.01,2013-02-17 15:30:00,
2013-02-17 10:32:00,17.1,12.8,29.93,NW,326,3.0,6.0,83,0.00,,,0.00,VWS V14.01,2013-02-17 15:32:00,
2013-02-17 10:37:00,17.0,12.7,29.93,NW,318,2.0,6.0,83,0.00,,,0.00,VWS V14.01,2013-02-17 15:37:00,
2013-02-17 10:42:00,17.1,12.8,29.93,NNW,342,2.0,6.0,83,0.00,,,0.00,VWS V14.01,2013-02-17 15:42:00,
2013-02-17 10:47:00,16.8,12.3,29.93,NNW,345,3.0,6.0,82,0.00,,,0.00,VWS V14.01,2013-02-17 15:47:00,
2013-02-17 10:52:00,16.7,12.4,29.93,NW,314,3.0,7.0,83,0.00,,,0.00,VWS V14.01,2013-02-17 15:52:00,
2013-02-17 10:57:00,16.6,12.1,29.93,NNW,347,4.0,8.0,82,0.00,,,0.00,VWS V14.01,2013-02-17 15:57:00,
2013-02-17 11:00:00,16.2,12.2,29.93,NW,316,2.0,10.0,84,0.00,,OVC,0.00,VWS V14.01,2013-02-17 16:00:00,
2013-02-17 11:02:00,16.7,12.2,29.93,North,349,4.0,8.0,82,0.00,,,0.00,VWS V14.01,2013-02-17 16:02:00,
2013-02-17 11:07:00,17.0,12.7,29.93,NNW,335,4.0,5.0,83,0.00,,,0.00,VWS V14.01,2013-02-17 16:07:00,
2013-02-17 11:13:00,16.9,12.9,29.93,NW,312,3.0,6.0,84,0.00,,,0.00,VWS V14.01,2013-02-17 16:13:00,
2013-02-17 11:18:00,16.6,12.9,29.93,SW,229,1.0,10.0,85,0.00,,,0.00,VWS V14.01,2013-02-17 16:18:00,
2013-02-17 11:23:00,16.3,12.3,29.93,North,359,5.0,10.0,84,0.00,,,0.00,VWS V14.01,2013-02-17 16:23:00,
2013-02-17 11:28:00,16.4,12.1,29.93,NW,326,4.0,10.0,83,0.00,,,0.00,VWS V14.01,2013-02-17 16:28:00,
2013-02-17 11:30:00,17.1,12.3,29.92,NW,312,6.0,12.0,81,0.00,,OVC,0.00,VWS V14.01,2013-02-17 16:30:00,
2013-02-17 11:33:00,16.8,12.5,29.93,North,11,5.0,8.0,83,0.00,,,0.00,VWS V14.01,2013-02-17 16:33:00,
2013-02-17 11:38:00,17.3,13.0,29.93,NNE,13,5.0,8.0,83,0.00,,,0.00,VWS V14.01,2013-02-17 16:38:00,
2013-02-17 11:43:00,17.6,13.1,29.93,West,274,1.0,8.0,82,0.00,,,0.00,VWS V14.01,2013-02-17 16:43:00,
2013-02-17 11:49:00,18.2,12.8,29.93,NW,321,9.0,9.0,79,0.00,,,0.00,VWS V14.01,2013-02-17 16:49:00,
2013-02-17 11:54:00,17.6,13.1,29.93,NW,311,5.0,9.0,82,0.00,,,0.00,VWS V14.01,2013-02-17 16:54:00,
2013-02-17 11:59:00,16.5,12.2,29.93,NE,56,4.0,10.0,83,0.00,,,0.00,VWS V14.01,2013-02-17 16:59:00,
2013-02-17 12:00:00,16.5,10.9,29.92,NW,307,8.0,13.0,78,0.00,,OVC,0.00,VWS V14.01,2013-02-17 17:00:00,
2013-02-17 12:04:00,16.2,12.5,29.93,NE,37,7.0,7.0,85,0.00,,,0.00,VWS V14.01,2013-02-17 17:04:00,
2013-02-17 12:09:00,16.0,12.3,29.92,NE,42,5.0,11.0,85,0.00,,,0.00,VWS V14.01,2013-02-17 17:09:00,
2013-02-17 12:14:00,16.0,12.0,29.92,West,280,0.0,11.0,84,0.00,,,0.00,VWS V14.01,2013-02-17 17:14:00,
2013-02-17 12:19:00,16.3,12.6,29.92,WNW,293,3.0,12.0,85,0.00,,,0.00,VWS V14.01,2013-02-17 17:19:00,
2013-02-17 12:25:00,16.3,12.1,29.92,WSW,247,0.0,12.0,83,0.00,,,0.00,VWS V14.01,2013-02-17 17:25:00,
2013-02-17 12:30:00,17.0,12.5,29.92,East,88,3.0,12.0,82,0.00,,,0.00,VWS V14.01,2013-02-17 17:30:00,
2013-02-17 12:35:00,17.1,12.8,29.92,NNW,337,3.0,10.0,83,0.00,,,0.00,VWS V14.01,2013-02-17 17:35:00,
2013-02-17 12:40:00,17.0,13.0,29.92,WNW,302,2.0,10.0,84,0.00,,,0.00,VWS V14.01,2013-02-17 17:40:00,
2013-02-17 12:45:00,17.2,12.9,29.92,West,273,5.0,10.0,83,0.00,,,0.00,VWS V14.01,2013-02-17 17:45:00,
2013-02-17 12:50:00,17.3,11.6,29.92,WNW,283,4.0,10.0,78,0.00,,,0.00,VWS V14.01,2013-02-17 17:50:00,
2013-02-17 12:56:00,16.6,10.4,29.92,WSW,258,0.0,13.0,76,0.00,,,0.00,VWS V14.01,2013-02-17 17:56:00,
2013-02-17 13:00:00,15.5,6.8,29.94,WSW,257,1.0,14.0,68,0.00,,OVC,0.00,VWS V14.01,2013-02-17 18:00:00,
2013-02-17 13:01:00,16.4,10.8,29.92,NW,318,10.0,13.0,78,0.00,,,0.00,VWS V14.01,2013-02-17 18:01:00,
2013-02-17 13:06:00,17.1,11.1,29.92,WNW,288,4.0,9.0,77,0.00,,,0.00,VWS V14.01,2013-02-17 18:06:00,
2013-02-17 13:11:00,17.4,9.9,29.92,West,260,4.0,11.0,72,0.00,,,0.00,VWS V14.01,2013-02-17 18:11:00,
2013-02-17 13:16:00,17.1,9.9,29.92,WNW,284,3.0,11.0,73,0.00,,,0.00,VWS V14.01,2013-02-17 18:16:00,
2013-02-17 13:21:00,16.2,9.7,29.93,NW,316,6.0,11.0,75,0.00,,,0.00,VWS V14.01,2013-02-17 18:21:00,
2013-02-17 13:26:00,16.2,8.8,29.93,West,273,4.0,11.0,72,0.00,,,0.00,VWS V14.01,2013-02-17 18:26:00,
2013-02-17 13:30:00,13.8,6.5,29.94,WSW,252,7.0,14.0,72,0.00,,OVC,0.00,VWS V14.01,2013-02-17 18:30:00,
2013-02-17 13:32:00,15.9,8.5,29.93,WSW,256,4.0,11.0,72,0.00,,,0.00,VWS V14.01,2013-02-17 18:32:00,
2013-02-17 13:37:00,16.6,9.5,29.93,West,280,5.0,7.0,73,0.00,,BKN048,0.00,VWS V14.01,2013-02-17 18:37:00,
2013-02-17 13:42:00,16.9,8.5,29.93,West,277,3.0,8.0,69,0.00,,BKN048,0.00,VWS V14.01,2013-02-17 18:42:00,
2013-02-17 13:47:00,17.4,9.3,29.93,NNE,23,2.0,8.0,70,0.00,,BKN048,0.00,VWS V14.01,2013-02-17 18:47:00,
2013-02-17 13:52:00,17.2,8.5,29.94,WNW,300,3.0,13.0,68,0.00,,BKN048,0.00,VWS V14.01,2013-02-17 18:52:00,
2013-02-17 13:57:00,16.3,6.9,29.94,West,264,7.0,14.0,66,0.00,,BKN048,0.00,VWS V14.01,2013-02-17 18:57:00,
2013-02-17 14:00:00,13.2,6.5,29.95,West,267,4.0,12.0,74,0.00,,OVC,0.00,VWS V14.01,2013-02-17 19:00:00,
2013-02-17 14:02:00,15.6,6.9,29.94,WNW,293,3.0,14.0,68,0.00,,BKN048,0.00,VWS V14.01,2013-02-17 19:02:00,
2013-02-17 14:07:00,15.4,7.4,29.94,West,269,2.0,9.0,70,0.00,,BKN048,0.00,VWS V14.01,2013-02-17 19:07:00,
2013-02-17 14:12:00,14.8,7.1,29.94,North,349,9.0,13.0,71,0.00,,BKN048,0.00,VWS V14.01,2013-02-17 19:12:00,
2013-02-17 14:17:00,14.1,6.8,29.94,North,359,3.0,13.0,72,0.00,,BKN048,0.00,VWS V14.01,2013-02-17 19:17:00,
2013-02-17 14:23:00,13.8,6.8,29.94,West,266,6.0,14.0,73,0.00,,BKN048,0.00,VWS V14.01,2013-02-17 19:23:00,
2013-02-17 14:28:00,13.5,5.9,29.94,West,274,4.0,14.0,71,0.00,,BKN048,0.00,VWS V14.01,2013-02-17 19:28:00,
2013-02-17 14:30:00,12.6,6.2,29.96,West,272,2.0,18.0,75,0.00,,OVC,0.00,VWS V14.01,2013-02-17 19:30:00,
2013-02-17 14:33:00,13.8,6.5,29.94,West,262,4.0,8.0,72,0.00,,BKN045,0.00,VWS V14.01,2013-02-17 19:33:00,
2013-02-17 14:38:00,13.9,6.2,29.94,West,281,2.0,9.0,71,0.00,,BKN045,0.00,VWS V14.01,2013-02-17 19:38:00,
2013-02-17 14:43:00,13.5,4.9,29.95,WNW,290,4.0,11.0,68,0.00,,BKN045,0.00,VWS V14.01,2013-02-17 19:43:00,
2013-02-17 14:48:00,13.2,5.3,29.95,SW,230,6.0,11.0,70,0.00,,BKN045,0.00,VWS V14.01,2013-02-17 19:48:00,
2013-02-17 14:53:00,13.2,6.2,29.95,West,273,3.0,11.0,73,0.00,,BKN045,0.00,VWS V14.01,2013-02-17 19:53:00,
2013-02-17 14:59:00,13.3,6.3,29.95,West,267,4.0,12.0,73,0.00,,BKN045,0.00,VWS V14.01,2013-02-17 19:59:00,
2013-02-17 15:00:00,12.7,6.3,29.96,WSW,245,4.0,17.0,75,0.00,,OVC,0.00,VWS V14.01,2013-02-17 20:00:00,
2013-02-17 15:04:00,13.2,6.5,29.95,WSW,238,2.0,8.0,74,0.00,,BKN045,0.00,VWS V14.01,2013-02-17 20:04:00,
2013-02-17 15:09:00,13.2,7.3,29.96,WSW,256,2.0,8.0,77,0.00,,BKN045,0.00,VWS V14.01,2013-02-17 20:09:00,
2013-02-17 15:14:00,12.9,6.8,29.96,WSW,250,5.0,12.0,76,0.00,,BKN045,0.00,VWS V14.01,2013-02-17 20:14:00,
2013-02-17 15:19:00,12.7,6.3,29.96,West,269,2.0,12.0,75,0.00,,BKN045,0.00,VWS V14.01,2013-02-17 20:19:00,
2013-02-17 15:24:00,12.6,6.5,29.96,WSW,250,4.0,12.0,76,0.00,,BKN045,0.00,VWS V14.01,2013-02-17 20:24:00,
2013-02-17 15:29:00,12.6,6.2,29.96,West,259,6.0,18.0,75,0.00,,BKN045,0.00,VWS V14.01,2013-02-17 20:29:00,
2013-02-17 15:30:00,12.5,5.8,29.98,WSW,253,5.0,12.0,74,0.00,,OVC,0.00,VWS V14.01,2013-02-17 20:30:00,
2013-02-17 15:34:00,12.6,6.5,29.97,West,263,3.0,8.0,76,0.00,,FEW029,0.00,VWS V14.01,2013-02-17 20:34:00,
2013-02-17 15:40:00,12.6,6.5,29.97,West,260,6.0,9.0,76,0.00,,FEW029,0.00,VWS V14.01,2013-02-17 20:40:00,
2013-02-17 15:45:00,12.4,5.7,29.97,NNW,328,3.0,17.0,74,0.00,,FEW029,0.00,VWS V14.01,2013-02-17 20:45:00,
2013-02-17 15:50:00,12.3,5.3,29.97,SW,223,2.0,17.0,73,0.00,,FEW029,0.00,VWS V14.01,2013-02-17 20:50:00,
2013-02-17 15:55:00,12.3,5.3,29.97,WSW,245,4.0,17.0,73,0.00,,FEW029,0.00,VWS V14.01,2013-02-17 20:55:00,
2013-02-17 16:00:00,12.6,5.9,29.96,WSW,245,2.0,17.0,74,0.00,,FEW029,0.00,VWS V14.01,2013-02-17 21:00:00,
2013-02-17 16:05:00,12.8,6.4,29.96,West,278,2.0,7.0,75,0.00,,FEW029,0.00,VWS V14.01,2013-02-17 21:05:00,
2013-02-17 16:10:00,12.8,6.1,29.96,NW,304,2.0,8.0,74,0.00,,FEW029,0.00,VWS V14.01,2013-02-17 21:10:00,
2013-02-17 16:15:00,12.6,5.9,29.97,WSW,257,6.0,10.0,74,0.00,,FEW029,0.00,VWS V14.01,2013-02-17 21:15:00,
2013-02-17 16:20:00,12.4,5.4,29.97,West,271,3.0,12.0,73,0.00,,FEW029,0.00,VWS V14.01,2013-02-17 21:20:00,
2013-02-17 16:26:00,12.4,5.4,29.98,WSW,255,1.0,12.0,73,0.00,,FEW029,0.00,VWS V14.01,2013-02-17 21:26:00,
2013-02-17 16:30:00,12.8,6.7,30.00,NNW,337,1.0,18.0,76,0.00,,OVC,0.00,VWS V14.01,2013-02-17 21:30:00,
2013-02-17 16:31:00,12.5,5.8,29.98,West,278,4.0,12.0,74,0.00,,FEW029,0.00,VWS V14.01,2013-02-17 21:31:00,
2013-02-17 16:36:00,12.6,5.9,29.98,WSW,252,4.0,11.0,74,0.00,,BKN033,0.00,VWS V14.01,2013-02-17 21:36:00,
2013-02-17 16:41:00,12.7,6.0,29.98,West,264,2.0,11.0,74,0.00,,BKN033,0.00,VWS V14.01,2013-02-17 21:41:00,
2013-02-17 16:46:00,12.7,6.0,29.99,NW,308,4.0,11.0,74,0.00,,BKN033,0.00,VWS V14.01,2013-02-17 21:46:00,
2013-02-17 16:51:00,12.7,6.0,29.99,North,11,2.0,11.0,74,0.00,,BKN033,0.00,VWS V14.01,2013-02-17 21:51:00,
2013-02-17 16:56:00,12.8,5.8,29.99,West,269,3.0,11.0,73,0.00,,BKN033,0.00,VWS V14.01,2013-02-17 21:56:00,
2013-02-17 17:00:00,12.7,7.4,30.02,NW,311,2.0,14.0,79,0.00,,OVC,0.00,VWS V14.01,2013-02-17 22:00:00,
2013-02-17 17:01:00,12.9,5.9,30.00,NW,323,4.0,11.0,73,0.00,,BKN033,0.00,VWS V14.01,2013-02-17 22:01:00,
2013-02-17 17:07:00,12.9,5.9,30.00,West,263,2.0,10.0,73,0.00,,BKN033,0.00,VWS V14.01,2013-02-17 22:07:00,
2013-02-17 17:12:00,12.9,5.9,30.00,East,101,2.0,10.0,73,0.00,,BKN033,0.00,VWS V14.01,2013-02-17 22:12:00,
2013-02-17 17:17:00,12.8,5.8,30.00,NW,311,7.0,11.0,73,0.00,,BKN033,0.00,VWS V14.01,2013-02-17 22:17:00,
2013-02-17 17:22:00,12.8,5.8,30.00,West,277,3.0,18.0,73,0.00,,BKN033,0.00,VWS V14.01,2013-02-17 22:22:00,
2013-02-17 17:27:00,12.8,6.1,30.01,SW,235,1.0,18.0,74,0.00,,BKN033,0.00,VWS V14.01,2013-02-17 22:27:00,
2013-02-17 17:30:00,12.5,8.1,30.03,WNW,295,1.0,9.0,82,0.00,,OVC,0.00,VWS V14.01,2013-02-17 22:30:00,
2013-02-17 17:32:00,12.8,6.7,30.00,WSW,255,2.0,18.0,76,0.00,,BKN033,0.00,VWS V14.01,2013-02-17 22:32:00,
2013-02-17 17:37:00,12.8,6.7,30.01,West,276,4.0,9.0,76,0.00,,OVC035,0.00,VWS V14.01,2013-02-17 22:37:00,
2013-02-17 17:42:00,12.8,6.7,30.01,North,353,4.0,9.0,76,0.00,,OVC035,0.00,VWS V14.01,2013-02-17 22:42:00,
2013-02-17 17:47:00,12.8,6.7,30.01,WSW,253,3.0,9.0,76,0.00,,OVC035,0.00,VWS V14.01,2013-02-17 22:47:00,
2013-02-17 17:52:00,12.8,7.0,30.02,WSW,247,5.0,11.0,77,0.00,,OVC035,0.00,VWS V14.01,2013-02-17 22:52:00,
2013-02-17 17:58:00,12.7,7.4,30.02,North,349,14.0,14.0,79,0.00,,OVC035,0.00,VWS V14.01,2013-02-17 22:58:00,
2013-02-17 18:00:00,12.7,8.3,30.03,West,270,2.0,12.0,82,0.00,,OVC,0.00,VWS V14.01,2013-02-17 23:00:00,
2013-02-17 18:03:00,12.6,7.3,30.02,WSW,238,2.0,4.0,79,0.00,,OVC035,0.00,VWS V14.01,2013-02-17 23:03:00,
2013-02-17 18:08:00,12.6,7.6,30.02,WSW,248,3.0,6.0,80,0.00,,OVC035,0.00,VWS V14.01,2013-02-17 23:08:00,
2013-02-17 18:13:00,12.5,7.8,30.02,NW,320,5.0,8.0,81,0.00,,OVC035,0.00,VWS V14.01,2013-02-17 23:13:00,
2013-02-17 18:18:00,12.5,7.8,30.02,West,264,5.0,8.0,81,0.00,,OVC035,0.00,VWS V14.01,2013-02-17 23:18:00,
2013-02-17 18:24:00,12.5,7.8,30.02,West,266,6.0,8.0,81,0.00,,OVC035,0.00,VWS V14.01,2013-02-17 23:24:00,
2013-02-17 18:29:00,12.5,8.1,30.02,WNW,300,2.0,9.0,82,0.00,,OVC035,0.00,VWS V14.01,2013-02-17 23:29:00,
2013-02-17 18:30:00,12.8,8.4,30.04,West,266,3.0,9.0,82,0.00,,OVC,0.00,VWS V14.01,2013-02-17 23:30:00,
2013-02-17 18:34:00,12.6,8.2,30.03,WSW,248,3.0,4.0,82,0.00,,OVC037,0.00,VWS V14.01,2013-02-17 23:34:00,
2013-02-17 18:39:00,12.6,8.2,30.03,WSW,248,3.0,7.0,82,0.00,,OVC037,0.00,VWS V14.01,2013-02-17 23:39:00,
2013-02-17 18:44:00,12.6,8.4,30.03,West,259,3.0,7.0,83,0.00,,OVC037,0.00,VWS V14.01,2013-02-17 23:44:00,
2013-02-17 18:49:00,12.7,8.5,30.02,West,266,4.0,8.0,83,0.00,,OVC037,0.00,VWS V14.01,2013-02-17 23:49:00,
2013-02-17 18:54:00,12.6,8.2,30.02,West,265,4.0,12.0,82,0.00,,OVC037,0.00,VWS V14.01,2013-02-17 23:54:00,
2013-02-17 19:00:00,12.6,8.2,30.03,West,276,7.0,12.0,82,0.00,,OVC037,0.00,VWS V14.01,2013-02-18 00:00:00,
2013-02-17 19:05:00,12.6,8.2,30.03,West,273,6.0,8.0,82,0.00,,OVC039,0.00,VWS V14.01,2013-02-18 00:05:00,
2013-02-17 19:10:00,12.7,8.3,30.03,West,277,2.0,8.0,82,0.00,,OVC039,0.00,VWS V14.01,2013-02-18 00:10:00,
2013-02-17 19:15:00,12.8,8.4,30.04,WSW,253,2.0,8.0,82,0.00,,BKN026,0.00,VWS V14.01,2013-02-18 00:15:00,
2013-02-17 19:20:00,12.8,8.1,30.03,NW,309,3.0,8.0,81,0.00,,BKN026,0.00,VWS V14.01,2013-02-18 00:20:00,
2013-02-17 19:26:00,12.8,8.1,30.04,WSW,250,2.0,9.0,81,0.00,,BKN026,0.00,VWS V14.01,2013-02-18 00:26:00,
2013-02-17 19:31:00,12.8,8.4,30.04,NW,320,3.0,9.0,82,0.00,,BKN026,0.00,VWS V14.01,2013-02-18 00:31:00,
2013-02-17 19:36:00,12.8,8.4,30.04,West,277,5.0,9.0,82,0.00,,BKN026,0.00,VWS V14.01,2013-02-18 00:36:00,
2013-02-17 19:41:00,12.8,8.4,30.05,WSW,249,3.0,9.0,82,0.00,,BKN026,0.00,VWS V14.01,2013-02-18 00:41:00,
2013-02-17 19:46:00,12.8,8.6,30.05,WNW,285,1.0,9.0,83,0.00,,BKN026,0.00,VWS V14.01,2013-02-18 00:46:00,
2013-02-17 19:51:00,12.8,8.6,30.05,NW,315,3.0,9.0,83,0.00,,BKN026,0.00,VWS V14.01,2013-02-18 00:51:00,
2013-02-17 19:56:00,12.8,8.6,30.05,WSW,250,4.0,9.0,83,0.00,,BKN026,0.00,VWS V14.01,2013-02-18 00:56:00,
2013-02-17 20:00:00,12.2,8.0,30.08,NNE,16,5.0,11.0,83,0.00,,OVC,0.00,VWS V14.01,2013-02-18 01:00:00,
2013-02-17 20:02:00,12.8,8.4,30.06,West,267,2.0,14.0,82,0.00,,BKN026,0.00,VWS V14.01,2013-02-18 01:02:00,
2013-02-17 20:07:00,12.8,8.4,30.06,West,267,2.0,8.0,82,0.00,,BKN026,0.00,VWS V14.01,2013-02-18 01:07:00,
2013-02-17 20:12:00,12.7,8.5,30.06,West,264,4.0,8.0,83,0.00,,BKN026,0.00,VWS V14.01,2013-02-18 01:12:00,
2013-02-17 20:17:00,12.7,8.5,30.06,West,262,2.0,10.0,83,0.00,,BKN026,0.00,VWS V14.01,2013-02-18 01:17:00,
2013-02-17 20:22:00,12.7,8.3,30.06,WNW,289,2.0,12.0,82,0.00,,BKN026,0.00,VWS V14.01,2013-02-18 01:22:00,
2013-02-17 20:27:00,12.6,8.2,30.06,West,264,2.0,12.0,82,0.00,,BKN026,0.00,VWS V14.01,2013-02-18 01:27:00,
2013-02-17 20:30:00,12.2,8.6,30.09,WSW,257,3.0,14.0,85,0.00,,OVC,0.00,VWS V14.01,2013-02-18 01:30:00,
2013-02-17 20:32:00,12.6,8.2,30.07,WSW,249,5.0,12.0,82,0.00,,OVC022,0.00,VWS V14.01,2013-02-18 01:32:00,
2013-02-17 20:37:00,12.5,8.1,30.07,WSW,247,6.0,9.0,82,0.00,,OVC022,0.00,VWS V14.01,2013-02-18 01:37:00,
2013-02-17 20:43:00,12.4,8.0,30.07,SW,221,3.0,9.0,82,0.00,,OVC022,0.00,VWS V14.01,2013-02-18 01:43:00,
2013-02-17 20:48:00,12.4,8.0,30.07,West,259,1.0,9.0,82,0.00,,OVC022,0.00,VWS V14.01,2013-02-18 01:48:00,
2013-02-17 20:53:00,12.3,8.1,30.08,West,270,2.0,9.0,83,0.00,,OVC022,0.00,VWS V14.01,2013-02-18 01:53:00,
2013-02-17 20:58:00,12.2,8.0,30.08,WNW,288,3.0,11.0,83,0.00,,OVC022,0.00,VWS V14.01,2013-02-18 01:58:00,
2013-02-17 21:00:00,12.0,8.1,30.10,WNW,290,3.0,8.0,84,0.00,,OVC,0.00,VWS V14.01,2013-02-18 02:00:00,
2013-02-17 21:03:00,12.2,8.0,30.08,NW,311,2.0,6.0,83,0.00,,OVC022,0.00,VWS V14.01,2013-02-18 02:03:00,
2013-02-17 21:08:00,12.2,8.0,30.08,West,264,6.0,6.0,83,0.00,,OVC022,0.00,VWS V14.01,2013-02-18 02:08:00,
2013-02-17 21:13:00,12.2,8.0,30.08,WSW,245,3.0,8.0,83,0.00,,OVC022,0.00,VWS V14.01,2013-02-18 02:13:00,
2013-02-17 21:19:00,12.2,8.3,30.09,West,264,2.0,14.0,84,0.00,,OVC022,0.00,VWS V14.01,2013-02-18 02:19:00,
2013-02-17 21:24:00,12.2,8.3,30.09,WNW,301,2.0,14.0,84,0.00,,OVC022,0.00,VWS V14.01,2013-02-18 02:24:00,
2013-02-17 21:29:00,12.2,8.6,30.09,West,267,1.0,14.0,85,0.00,,OVC022,0.00,VWS V14.01,2013-02-18 02:29:00,
2013-02-17 21:34:00,12.2,8.6,30.09,WSW,242,3.0,4.0,85,0.00,,BKN025,0.00,VWS V14.01,2013-02-18 02:34:00,
2013-02-17 21:39:00,12.2,8.6,30.09,WSW,253,1.0,8.0,85,0.00,,BKN025,0.00,VWS V14.01,2013-02-18 02:39:00,
2013-02-17 21:44:00,12.1,8.5,30.10,WSW,242,3.0,8.0,85,0.00,,BKN025,0.00,VWS V14.01,2013-02-18 02:44:00,
2013-02-17 21:49:00,12.1,8.2,30.10,SW,229,2.0,8.0,84,0.00,,BKN025,0.00,VWS V14.01,2013-02-18 02:49:00,
2013-02-17 21:54:00,12.0,8.1,30.10,NE,51,2.0,8.0,84,0.00,,BKN025,0.00,VWS V14.01,2013-02-18 02:54:00,
2013-02-17 22:00:00,12.0,8.1,30.10,West,266,5.0,8.0,84,0.00,,BKN025,0.00,VWS V14.01,2013-02-18 03:00:00,
2013-02-17 22:05:00,12.0,8.1,30.11,South,187,2.0,13.0,84,0.00,,BKN025,0.00,VWS V14.01,2013-02-18 03:05:00,
2013-02-17 22:10:00,12.1,8.2,30.10,WSW,253,2.0,13.0,84,0.00,,BKN025,0.00,VWS V14.01,2013-02-18 03:10:00,
2013-02-17 22:15:00,12.1,8.2,30.11,West,261,4.0,13.0,84,0.00,,BKN025,0.00,VWS V14.01,2013-02-18 03:15:00,
2013-02-17 22:20:00,12.1,8.2,30.11,WSW,252,2.0,13.0,84,0.00,,BKN025,0.00,VWS V14.01,2013-02-18 03:20:00,
2013-02-17 22:25:00,12.1,8.2,30.11,NW,307,1.0,13.0,84,0.00,,BKN025,0.00,VWS V14.01,2013-02-18 03:25:00,
2013-02-17 22:30:00,12.0,8.1,30.11,WSW,246,5.0,13.0,84,0.00,,BKN025,0.00,VWS V14.01,2013-02-18 03:30:00,
2013-02-17 22:36:00,12.0,7.8,30.11,WSW,254,5.0,7.0,83,0.00,,OVC017,0.00,VWS V14.01,2013-02-18 03:36:00,
2013-02-17 22:41:00,12.0,7.8,30.12,WSW,239,5.0,7.0,83,0.00,,OVC017,0.00,VWS V14.01,2013-02-18 03:41:00,
2013-02-17 22:46:00,12.0,7.8,30.12,WNW,284,1.0,7.0,83,0.00,,OVC017,0.00,VWS V14.01,2013-02-18 03:46:00,
2013-02-17 22:51:00,12.1,7.9,30.12,WNW,285,3.0,8.0,83,0.00,,OVC017,0.00,VWS V14.01,2013-02-18 03:51:00,
2013-02-17 22:56:00,12.1,7.9,30.12,NW,318,5.0,8.0,83,0.00,,OVC017,0.00,VWS V14.01,2013-02-18 03:56:00,
2013-02-17 23:00:00,11.9,7.7,30.14,West,263,3.0,8.0,83,0.00,,OVC,0.00,VWS V14.01,2013-02-18 04:00:00,
2013-02-17 23:01:00,12.1,7.7,30.12,West,265,2.0,8.0,82,0.00,,OVC017,0.00,VWS V14.01,2013-02-18 04:01:00,
2013-02-17 23:06:00,12.1,7.7,30.12,WSW,252,2.0,8.0,82,0.00,,OVC017,0.00,VWS V14.01,2013-02-18 04:06:00,
2013-02-17 23:11:00,12.1,7.7,30.13,WNW,285,2.0,9.0,82,0.00,,OVC017,0.00,VWS V14.01,2013-02-18 04:11:00,
2013-02-17 23:17:00,12.0,7.6,30.13,WSW,255,0.0,9.0,82,0.00,,OVC017,0.00,VWS V14.01,2013-02-18 04:17:00,
2013-02-17 23:22:00,11.9,7.5,30.13,West,259,4.0,9.0,82,0.00,,OVC017,0.00,VWS V14.01,2013-02-18 04:22:00,
2013-02-17 23:27:00,11.8,7.4,30.14,West,262,2.0,9.0,82,0.00,,OVC017,0.00,VWS V14.01,2013-02-18 04:27:00,
2013-02-17 23:30:00,12.0,7.8,30.15,WSW,248,2.0,8.0,83,0.00,,OVC,0.00,VWS V14.01,2013-02-18 04:30:00,
2013-02-17 23:32:00,11.7,7.3,30.14,WSW,256,2.0,9.0,82,0.00,,OVC017,0.00,VWS V14.01,2013-02-18 04:32:00,
2013-02-17 23:37:00,11.7,7.3,30.14,West,281,2.0,6.0,82,0.00,,OVC022,0.00,VWS V14.01,2013-02-18 04:37:00,
2013-02-17 23:42:00,11.7,7.3,30.14,WSW,246,1.0,7.0,82,0.00,,OVC022,0.00,VWS V14.01,2013-02-18 04:42:00,
2013-02-17 23:47:00,11.7,7.3,30.14,WSW,252,4.0,7.0,82,0.00,,OVC022,0.00,VWS V14.01,2013-02-18 04:47:00,
2013-02-17 23:52:00,11.7,7.6,30.14,West,277,2.0,7.0,83,0.00,,OVC022,0.00,VWS V14.01,2013-02-18 04:52:00,
2013-02-17 23:58:00,11.8,7.6,30.15,NW,319,3.0,8.0,83,0.00,,OVC022,0.00,VWS V14.01,2013-02-18 04:58:00,